Wind_Speed
12 11 11 11 10 10 10 10 10 10 10 10 9 9 10 9 9 9 9 9 9 8 8 8 10 11 12 12 13 14 16 16 14 12 11 11 11 11 9 10 10 9 12 9 6 6 8 10 12 14 11 7 3 3 6 6 4 3 3 3 4 4 7 6 5 4 2 1 1 6 4 6 8 6 3 5 11 11 13 13 14 15 14 17 23 31 32 33
12 12 11 11 10 10 10 10 9 10 10 9 9 10 10 9 9 9 8 9 8 8 8 9 10 11 11 12 12 14 16 16 14 15 20 17 12 15 13 10 10 12 12 9 7 8 8 7 10 11 6 3 3 4 4 4 3 3 2 4 5 5 8 7 8 6 3 0 4 2 5 5 6 5 3 5 9 10 13 12 16 18 14 17 23 27 29 31
12 12 11 11 11 10 10 10 9 9 10 9 10 10 9 9 8 8 8 8 8 8 9 10 10 10 11 10 12 13 14 13 9 12 19 18 16 19 18 14 12 13 13 11 10 12 13 12 12 9 5 4 4 5 5 3 3 4 3 3 6 8 10 9 9 7 2 2 5 4 5 5 6 5 2 6 8 8 11 12 14 16 14 14 15 19 24 25
12 12 11 11 11 11 10 10 10 10 10 10 10 9 9 9 9 9 8 8 8 8 9 9 10 10 10 10 12 13 10 8 4 7 10 12 16 18 18 16 13 13 14 12 10 12 16 17 13 7 6 4 5 6 6 5 3 3 4 5 7 7 8 8 7 6 4 4 5 5 5 4 6 5 4 7 6 5 8 14 18 19 18 17 14 14 18 19
12 12 12 11 11 11 10 10 10 10 10 10 10 10 9 9 9 8 7 7 8 8 9 9 9 9 9 11 11 10 6 3 2 4 5 10 15 15 14 12 10 10 9 8 8 11 15 15 11 6 5 4 5 5 6 8 6 3 6 10 10 8 8 5 7 10 8 6 6 4 3 1 4 4 5 7 5 2 4 13 20 20 19 18 15 13 13 12
12 12 12 11 11 11 11 10 10 10 10 10 9 9 9 9 9 8 7 7 8 8 9 8 9 9 10 11 9 5 1 1 3 6 10 11 13 12 10 8 8 8 7 6 8 10 12 11 8 5 4 4 6 6 7 9 9 4 6 9 11 11 9 2 5 8 9 8 7 3 1 0 3 3 3 6 6 2 5 10 18 18 18 19 16 13 10 9
12 12 12 11 11 11 11 11 11 10 10 10 9 9 9 9 8 8 8 8 8 8 8 8 8 10 11 10 5 2 2 6 9 7 11 11 11 10 8 7 8 8 8 7 9 9 8 9 8 5 4 5 7 9 9 8 9 7 6 7 9 10 8 3 6 6 7 6 7 5 2 1 3 3 2 6 6 8 15 15 18 19 19 19 14 11 10 9
13 12 12 12 11 11 11 11 11 10 10 10 10 10 9 9 9 8 7 7 7 7 7 7 8 9 11 8 2 1 3 9 11 9 11 10 10 8 8 9 9 10 10 11 11 10 9 10 9 6 5 6 7 8 8 8 7 8 7 6 7 6 3 7 6 4 3 4 4 6 5 5 1 3 4 6 7 10 17 19 19 18 16 15 13 12 10 9
13 12 12 12 11 11 11 11 10 10 11 10 10 10 9 9 8 8 7 7 7 7 7 6 7 8 9 6 2 3 4 8 10 11 11 11 10 9 9 9 11 13 13 15 16 15 10 8 9 7 6 7 9 8 7 7 6 8 8 5 6 3 3 7 6 4 2 2 3 4 5 7 5 4 2 5 8 6 13 19 18 17 15 13 12 11 10 9
13 12 11 11 11 11 11 11 11 10 10 10 10 10 9 8 7 7 7 7 6 6 6 6 7 8 7 4 2 4 3 8 10 10 11 11 10 9 10 9 12 14 13 15 18 18 12 8 7 5 5 5 7 8 8 6 5 6 5 5 6 1 2 4 6 4 4 2 1 1 3 6 6 3 2 1 6 6 8 14 16 16 14 13 12 10 10 9
13 12 12 11 11 11 10 10 11 11 10 10 10 10 9 8 7 7 6 6 6 6 6 6 6 7 7 4 2 4 6 11 10 8 10 10 10 11 11 12 14 18 17 15 17 18 14 12 8 3 2 4 6 7 8 6 5 2 0 4 5 2 2 4 7 1 2 3 4 2 2 5 5 2 4 4 3 7 8 9 12 14 12 12 13 10 8 9
13 13 12 11 11 11 11 11 11 12 12 12 11 11 10 9 7 6 6 6 6 6 5 6 5 6 6 3 5 8 7 8 9 10 10 10 12 13 13 14 15 19 17 12 12 12 12 11 6 4 3 4 6 6 6 8 2 2 3 3 6 3 2 4 6 3 3 4 5 4 1 5 5 5 7 7 3 6 8 7 9 11 11 11 11 9 8 10
13 12 11 11 11 11 12 13 13 13 13 13 12 11 10 9 7 6 6 5 5 5 5 5 5 4 4 2 8 10 7 8 10 13 13 10 11 13 13 11 11 13 12 12 13 13 14 14 9 3 5 5 5 4 4 9 3 3 1 2 4 5 3 5 7 6 5 5 6 7 1 5 7 9 9 7 7 7 7 6 7 8 10 11 9 8 9 11
12 11 11 12 12 12 14 14 14 14 13 12 11 10 10 8 7 6 5 5 4 4 5 5 4 3 1 5 11 9 8 9 10 13 14 11 12 14 13 10 8 10 12 13 13 12 11 11 10 5 5 5 5 4 5 6 2 2 2 2 2 2 5 7 8 9 6 4 8 8 2 6 7 10 10 6 10 10 7 5 5 7 10 10 9 10 10 10
11 11 11 11 12 13 15 15 15 15 12 11 10 9 8 7 6 5 4 4 4 4 5 5 4 0 1 7 13 9 11 9 9 12 12 13 14 12 13 13 11 12 13 12 10 11 11 8 6 3 4 6 5 4 4 4 2 1 1 4 2 4 7 8 8 12 9 4 10 9 2 6 7 8 9 8 12 11 9 7 5 6 10 11 9 10 10 10
11 11 11 11 12 13 15 15 15 14 13 10 9 9 7 5 5 4 4 3 3 4 3 4 5 5 1 5 6 5 9 8 11 14 13 15 15 12 13 14 12 13 11 10 9 9 11 6 3 3 3 4 3 3 3 4 4 1 4 5 4 5 7 7 7 14 12 6 8 9 4 4 4 6 6 4 13 11 9 7 6 6 9 11 9 9 10 10
11 11 11 10 11 12 14 16 15 13 12 9 9 10 8 5 3 3 3 3 2 4 5 6 4 5 4 7 6 3 7 11 14 16 16 14 15 15 13 10 8 10 8 9 9 7 7 3 1 2 2 1 3 2 2 4 5 3 2 4 5 6 6 4 5 11 12 9 7 7 5 4 5 4 5 6 9 9 7 6 7 6 7 9 8 8 10 10
11 11 10 10 10 11 13 15 15 13 11 8 7 9 9 5 2 3 2 2 1 3 7 10 5 1 4 8 7 7 10 12 9 10 13 11 12 14 11 5 5 6 5 5 6 3 2 1 1 1 3 1 3 1 3 5 3 2 2 0 5 5 5 5 5 8 10 10 8 7 7 7 6 4 3 5 7 8 7 6 7 7 8 8 8 9 10 10
11 10 9 10 10 10 12 13 16 15 12 9 7 9 8 4 2 2 2 2 2 0 2 4 5 1 3 6 10 5 6 9 7 4 8 9 10 10 11 9 4 5 4 2 3 4 3 1 1 1 4 3 4 3 5 4 2 1 3 1 3 5 5 4 2 5 9 8 6 7 7 7 6 5 6 6 7 9 9 7 6 6 7 8 8 7 9 11
11 10 9 9 9 10 11 12 14 16 16 12 8 7 6 3 1 0 2 5 6 7 6 4 8 4 6 3 4 4 7 6 4 5 8 9 9 7 7 7 4 3 3 3 4 4 4 2 2 4 6 6 3 2 2 2 3 3 3 3 4 5 5 5 3 1 4 5 4 6 6 7 6 5 5 5 5 6 7 8 7 6 7 8 9 8 9 9
12 11 9 9 9 9 10 10 13 16 17 14 8 4 3 2 2 1 1 5 11 15 13 11 12 10 9 5 4 4 3 3 3 6 10 10 8 5 3 4 3 3 4 5 3 2 5 4 6 7 8 7 5 4 5 5 5 4 3 3 5 4 4 3 1 1 4 4 3 2 1 5 5 5 5 2 4 6 7 8 7 7 8 7 9 9 8 7
12 10 9 9 9 9 10 11 12 16 18 15 6 3 4 4 4 6 4 3 8 14 15 16 15 10 10 9 1 2 4 2 5 7 9 11 7 4 4 5 4 4 5 4 1 2 4 4 9 9 5 4 3 5 7 5 4 4 3 3 3 4 4 4 2 4 6 3 2 4 4 5 6 6 7 5 4 6 8 10 9 9 8 8 9 8 8 7
12 10 10 9 9 10 12 12 13 16 18 12 5 6 5 6 6 10 7 3 6 10 12 13 12 8 8 9 6 5 4 3 6 7 11 10 5 5 4 4 6 5 5 5 4 4 4 5 11 9 4 2 1 4 6 5 4 2 2 2 2 4 4 4 3 3 4 2 1 3 4 5 6 6 6 8 7 6 9 11 9 8 8 8 9 8 8 9
11 10 10 9 11 10 12 15 15 17 17 12 12 13 8 8 6 9 5 2 3 7 8 9 9 5 4 3 5 6 3 4 5 5 12 9 4 5 5 5 6 5 5 7 9 8 6 6 7 6 5 3 0 2 4 5 3 4 3 2 3 4 5 4 2 1 3 2 1 2 5 5 5 6 7 8 8 6 8 11 9 7 8 7 8 7 7 9
10 10 9 9 10 10 12 15 12 13 14 12 12 10 7 8 8 7 2 1 2 4 4 3 5 1 1 6 5 4 3 4 2 6 10 8 5 3 3 5 4 4 6 7 9 8 8 5 7 8 4 3 2 1 1 5 0 4 4 6 6 6 8 6 1 3 5 5 4 2 2 5 5 6 8 7 6 7 7 11 11 8 7 6 6 7 6 7
10 9 8 8 8 10 10 8 9 14 10 5 7 10 8 9 10 7 2 2 2 2 1 1 3 1 1 3 4 2 3 5 6 12 9 7 5 0 1 3 2 4 7 5 3 2 4 4 7 8 6 4 3 1 2 5 3 3 4 5 6 7 9 9 3 3 2 2 4 4 4 4 5 5 9 7 7 10 8 10 11 9 8 8 7 8 8 7
9 8 7 6 7 8 6 5 12 15 6 4 12 12 9 11 10 6 3 3 3 1 2 1 1 2 2 3 3 2 2 4 5 7 5 5 2 2 1 4 4 4 5 2 2 2 2 3 2 3 5 4 4 3 4 5 4 3 4 5 5 6 8 10 7 2 3 3 3 3 5 2 4 7 9 6 6 9 8 9 10 9 10 11 10 10 10 10
8 8 5 4 6 7 6 8 12 10 7 10 12 10 10 11 8 4 4 2 3 2 1 0 1 3 3 3 3 1 4 3 2 2 1 7 4 3 1 7 5 7 8 2 3 4 3 4 3 3 2 3 4 4 6 6 5 5 5 6 6 4 3 3 3 3 1 2 5 4 4 2 4 7 8 6 5 7 9 11 11 9 11 12 12 12 12 12
7 6 3 3 6 7 8 10 8 7 10 12 11 10 10 9 6 2 4 1 3 2 1 1 2 3 3 3 4 3 4 2 3 4 2 6 4 2 2 6 5 9 10 4 5 5 3 5 8 6 4 4 3 5 6 5 6 6 3 2 2 2 4 3 2 2 2 1 5 6 4 2 4 6 7 5 4 7 8 10 10 11 12 11 11 11 11 11
6 4 3 4 5 7 9 9 7 9 12 12 13 13 10 5 3 3 2 1 3 1 1 2 2 5 6 4 4 5 6 4 5 5 2 2 2 3 2 3 2 6 6 4 5 6 5 1 5 4 3 3 3 5 6 6 8 6 4 2 3 4 4 3 2 2 3 3 7 7 5 4 4 5 6 4 5 7 6 5 5 9 11 9 9 8 9 10
5 4 4 5 5 6 7 6 7 11 12 14 16 13 6 3 2 2 1 1 1 1 1 1 2 6 8 7 6 6 7 6 6 6 3 1 2 3 1 2 1 3 5 5 5 6 6 3 1 2 3 3 3 5 5 6 5 5 4 3 4 4 5 3 3 2 1 5 8 7 6 4 4 6 6 6 6 4 4 5 2 5 8 8 8 7 8 8
3 3 4 4 4 5 5 6 11 13 13 16 15 7 3 3 1 2 2 1 1 2 2 1 0 1 3 4 4 5 7 6 6 7 5 4 4 5 4 3 2 0 3 4 4 4 5 5 5 3 5 6 3 3 5 7 1 5 4 4 3 2 3 1 2 1 3 7 6 5 5 4 5 7 9 9 7 3 3 4 5 7 7 7 8 7 7 7
2 2 3 3 3 4 5 9 11 11 14 17 9 2 2 2 1 4 4 1 1 3 2 2 3 2 3 4 5 4 6 4 5 7 7 7 6 5 7 8 7 5 3 4 4 2 3 6 7 4 4 7 6 3 2 4 1 3 4 4 3 2 1 3 4 3 4 5 6 5 4 4 4 6 8 9 7 5 5 6 7 8 9 8 8 7 7 7
3 4 5 4 5 4 4 8 10 9 14 13 5 2 3 0 4 4 4 2 2 3 2 5 6 4 3 2 4 6 5 4 4 6 4 4 2 2 5 8 8 7 5 3 3 2 2 5 6 5 2 7 7 6 6 4 3 4 5 5 5 4 3 4 3 2 3 2 5 4 2 4 4 6 7 6 6 4 2 3 4 5 5 7 5 6 8 8
5 7 8 8 8 5 3 7 9 8 10 7 3 2 1 2 5 2 2 3 5 6 8 10 9 5 5 4 6 8 5 4 5 3 2 3 3 3 3 5 7 5 2 2 2 1 1 4 5 5 5 10 10 8 7 3 3 3 2 4 5 5 5 4 3 4 2 1 3 2 2 4 4 6 7 7 8 8 5 1 1 2 3 7 5 5 6 6
8 9 11 12 9 4 3 6 7 7 6 4 4 1 2 4 4 2 2 3 5 7 8 8 6 4 4 4 5 6 2 1 1 1 1 2 2 5 5 5 6 7 5 4 1 0 1 5 4 4 4 5 7 8 8 5 3 3 2 3 5 6 6 4 3 0 2 2 3 1 2 5 4 6 7 7 9 8 7 5 2 1 2 4 5 5 6 5
10 9 11 10 4 2 4 5 6 7 4 2 1 2 3 3 3 2 3 5 5 6 6 5 3 4 4 3 4 4 3 3 1 3 1 3 3 5 5 4 5 9 8 6 2 1 2 3 6 6 8 8 5 3 5 6 6 3 3 3 3 2 1 2 1 1 2 2 3 1 3 5 4 4 6 7 8 8 6 5 5 4 4 2 1 1 4 5
10 8 9 6 3 4 5 6 7 5 2 0 1 4 4 2 2 3 5 6 6 6 5 3 2 3 3 4 6 6 5 4 2 2 2 2 2 4 4 3 3 3 2 6 2 1 3 1 5 5 7 10 8 4 3 2 4 5 6 4 1 1 1 1 1 2 2 2 3 4 5 4 3 4 6 7 5 5 5 4 6 7 6 4 5 5 4 3
7 5 4 2 2 6 6 5 6 3 1 1 3 4 3 2 4 6 6 5 4 4 3 4 3 3 4 5 6 7 7 5 3 2 2 1 3 4 2 1 3 6 6 7 3 1 3 1 3 4 7 9 8 4 3 4 5 5 5 3 1 3 3 2 3 3 3 3 3 4 4 3 5 5 1 3 3 4 5 6 7 9 8 5 6 7 7 7
3 2 1 1 3 6 5 3 3 1 1 3 4 3 3 4 6 8 6 3 2 0 2 4 5 3 4 6 6 6 6 6 5 3 2 2 4 4 1 1 3 4 4 5 4 2 3 2 2 4 7 7 4 3 3 4 5 5 4 4 3 1 0 1 2 2 3 3 2 3 4 5 6 2 5 6 5 6 7 6 6 8 8 7 7 7 7 8
3 2 2 2 2 2 1 2 1 1 3 3 3 2 3 3 5 8 8 5 0 3 3 3 5 3 2 4 5 4 4 5 6 4 2 4 3 2 4 5 5 6 4 4 4 3 2 2 2 2 3 3 5 6 7 8 7 5 3 3 4 3 1 2 4 2 2 3 3 2 3 6 7 3 4 6 5 5 6 5 5 5 7 7 6 6 6 7
2 2 3 1 2 1 2 2 2 2 2 3 3 3 2 2 4 5 6 6 4 2 2 2 3 3 2 3 3 4 4 3 4 4 3 5 4 2 4 7 6 6 5 4 3 2 1 2 0 3 3 5 7 9 11 14 12 9 6 4 4 3 2 3 4 3 1 3 4 4 3 7 7 2 4 5 5 5 6 6 5 5 6 7 8 8 7 7
1 4 4 0 2 1 1 2 4 3 2 4 5 5 5 5 5 5 4 5 4 3 2 3 4 4 3 4 4 5 5 3 4 4 4 6 5 1 3 6 4 4 4 3 2 2 2 2 1 3 3 4 6 7 10 12 10 8 6 3 3 4 2 4 5 3 2 3 3 4 3 6 6 0 4 4 5 6 6 6 7 7 6 7 8 9 9 8
3 4 4 2 7 6 2 1 4 4 4 5 6 7 8 6 6 7 5 3 3 4 4 4 4 3 3 5 4 5 5 3 3 4 4 4 2 1 1 3 4 3 3 1 1 1 1 0 1 2 4 5 5 4 5 6 5 3 4 5 5 6 5 2 1 2 1 3 4 4 4 6 5 3 4 6 7 7 6 6 8 7 7 8 8 8 8 9
4 3 2 5 11 9 1 2 1 2 3 6 6 6 7 5 6 8 7 3 2 3 2 3 5 4 4 6 5 5 5 4 3 3 3 3 3 4 4 1 5 5 4 6 6 4 2 1 2 2 2 3 2 2 1 4 5 3 5 7 8 9 8 4 2 2 1 4 3 3 4 6 7 7 8 7 7 7 7 8 8 7 7 8 8 8 8 8
3 2 3 6 8 6 2 2 3 3 4 6 4 5 5 5 6 8 6 2 1 2 1 2 5 5 5 6 5 4 6 6 5 4 3 4 4 4 5 3 3 6 8 10 8 5 2 2 2 4 6 5 5 5 4 7 7 7 9 10 9 9 7 3 2 1 2 3 4 4 5 6 8 8 8 5 4 6 7 8 7 7 7 8 8 9 10 10
2 1 3 4 4 4 4 5 6 5 5 5 3 4 5 5 5 4 3 1 3 3 1 1 2 3 4 5 4 3 5 6 7 6 5 5 5 6 10 9 2 7 9 7 6 5 3 1 4 5 8 8 7 8 9 9 10 11 12 13 12 8 6 5 3 5 4 2 5 6 4 4 7 9 9 6 4 3 3 4 4 4 5 6 8 9 11 12
2 1 3 4 3 4 5 6 7 6 7 6 3 3 6 6 5 4 3 3 5 4 2 1 0 3 6 7 5 3 4 5 5 5 4 4 5 7 9 10 6 4 3 0 1 4 3 3 5 6 9 10 8 9 9 9 11 11 12 14 13 8 6 6 8 9 6 4 6 8 6 5 8 9 9 8 5 4 5 5 5 4 4 5 7 8 9 9
4 2 3 5 3 4 5 8 9 7 6 6 4 3 4 5 5 6 4 3 4 6 6 3 2 4 7 7 5 4 4 2 3 4 5 5 6 5 5 7 6 2 0 3 3 1 3 3 6 7 8 9 8 8 9 9 10 11 14 14 10 7 7 8 9 8 7 6 7 7 8 8 8 7 7 7 4 3 3 3 3 5 5 5 6 6 6 7
4 2 3 4 3 5 5 6 7 5 5 5 4 4 5 4 4 5 4 4 4 5 7 7 7 7 7 7 6 4 3 1 2 3 4 5 5 4 3 4 5 6 5 3 3 1 1 3 5 4 5 7 6 6 8 9 10 13 15 12 6 6 9 9 9 7 5 6 7 6 8 8 6 5 6 6 5 4 5 6 7 6 7 8 7 7 7 7
8 7 7 4 3 5 4 4 5 5 4 4 4 4 3 3 5 6 6 6 5 4 6 7 7 7 7 8 7 5 5 5 5 5 4 4 4 3 3 4 6 8 6 3 4 1 1 2 2 1 4 5 3 4 8 9 10 14 14 9 5 6 7 6 6 6 5 6 7 7 6 7 7 5 5 6 7 7 7 7 7 6 7 7 7 7 7 7
14 11 10 4 3 4 4 5 5 4 3 5 5 6 5 5 8 8 5 4 5 6 7 8 7 5 5 7 7 5 7 7 7 7 5 4 6 6 5 7 9 8 5 4 5 2 1 1 2 2 5 3 3 4 6 6 7 10 8 4 4 6 7 6 6 6 5 4 3 4 5 5 6 6 7 8 9 8 7 6 5 5 6 7 6 6 6 7
Wind_Direction
324 322 320 321 319 319 318 316 317 316 316 313 312 310 310 311 308 308 307 305 307 300 297 304 306 307 307 312 322 331 330 319 310 299 257 237 243 253 273 262 243 227 224 248 269 248 261 261 239 238 249 257 236 226 263 265 251 239 186 213 250 253 258 252 266 301 42 345 157 149 138 104 115 100 65 77 86 95 89 83 73 67 89 105 115 123 125 128
323 323 321 322 321 319 318 314 314 314 314 314 313 309 307 308 308 308 304 305 306 303 306 309 309 308 309 319 330 335 334 320 307 284 252 233 246 256 249 235 224 218 218 235 248 233 241 251 230 222 225 238 225 211 224 236 229 225 194 197 225 242 252 263 280 294 63 294 289 138 117 85 122 121 42 87 103 103 97 97 92 87 91 101 116 124 127 133
324 325 322 321 320 316 314 311 310 311 311 311 310 308 306 304 306 307 306 308 305 306 309 309 310 309 315 325 332 340 335 319 299 270 253 231 235 247 237 228 218 216 225 233 241 239 240 250 242 215 200 231 235 223 214 209 220 220 209 214 234 240 254 275 279 275 88 86 340 30 74 71 122 121 64 119 130 131 124 124 115 115 120 119 123 126 134 140
325 325 322 319 318 315 314 314 311 311 309 307 307 306 305 302 302 303 301 302 301 304 306 306 308 310 322 329 334 344 334 311 277 263 260 222 221 232 228 227 225 222 228 233 243 250 257 270 266 230 200 223 230 234 227 202 206 208 192 226 248 252 265 292 319 328 29 58 34 34 31 65 133 121 120 129 130 164 159 147 139 141 142 136 136 134 140 150
326 324 322 319 318 316 315 313 309 307 304 301 303 303 301 301 300 299 297 299 299 303 304 304 308 314 327 331 333 342 341 328 257 226 208 196 205 211 213 215 215 210 208 220 241 255 265 272 272 253 212 223 236 235 230 207 203 216 206 225 248 265 273 305 14 7 5 18 38 50 17 73 146 114 128 128 129 212 206 161 148 144 142 135 138 140 143 158
327 325 324 321 318 314 311 310 308 306 304 301 302 301 299 298 295 298 300 302 303 303 305 305 312 325 332 330 328 330 352 304 270 180 165 179 188 188 192 191 188 187 184 212 241 253 262 258 255 256 218 224 244 242 241 213 191 215 231 223 234 243 248 266 47 15 4 359 4 4 287 172 122 87 77 95 122 84 50 142 141 127 129 129 134 139 145 163
329 327 324 321 317 312 311 310 308 306 304 301 299 297 296 295 295 298 298 299 302 301 303 308 320 333 333 332 327 297 209 272 275 199 170 175 175 175 183 191 195 190 190 216 243 245 249 249 238 235 224 218 239 244 248 225 183 198 239 230 235 243 232 123 81 43 13 334 340 359 330 294 144 137 96 85 110 85 71 98 115 114 125 128 133 141 151 162
330 327 324 322 318 314 312 309 307 305 303 300 297 296 296 296 296 295 295 296 298 301 304 313 332 337 336 342 337 243 235 258 253 193 171 174 173 180 190 199 204 198 201 218 232 235 243 246 232 225 230 222 239 245 243 236 197 205 237 236 249 259 179 105 89 68 18 304 352 22 353 323 318 130 145 118 106 98 96 104 112 119 128 129 138 146 153 158
331 328 325 322 318 314 311 308 307 304 302 301 298 297 296 295 294 292 292 294 295 297 300 318 336 336 337 338 303 292 269 234 209 177 170 179 179 189 198 200 202 197 208 224 230 238 244 237 228 226 228 232 249 257 256 244 212 216 225 237 258 261 130 117 117 117 106 307 33 37 326 313 327 29 76 113 107 105 110 118 126 131 135 137 145 151 156 154
334 331 327 322 319 315 312 311 308 305 304 303 302 301 298 295 291 290 290 291 292 290 301 325 333 335 334 309 274 296 242 171 165 171 173 177 179 192 201 198 204 202 212 231 232 238 243 241 248 245 236 254 265 266 271 248 210 216 214 249 266 190 137 126 114 118 134 223 271 144 255 287 309 344 313 124 121 125 113 123 135 137 142 146 147 153 154 143
336 332 329 324 322 319 316 315 312 311 309 307 307 305 301 297 288 286 285 287 289 290 304 318 327 341 333 298 272 270 196 154 145 160 165 173 186 201 211 204 208 209 214 232 235 238 246 255 278 327 265 303 316 290 285 264 212 204 136 287 284 147 170 111 97 98 157 212 240 168 243 291 304 267 219 236 153 141 139 138 140 139 146 148 147 150 141 133
336 333 331 328 326 325 323 320 318 316 312 308 307 305 302 298 291 280 273 277 282 288 302 316 332 348 337 301 242 244 221 178 159 158 168 187 199 212 230 228 219 216 225 254 268 279 292 295 324 2 291 310 321 295 301 305 279 94 44 315 306 325 230 149 129 200 186 196 198 138 319 295 287 262 219 211 179 139 142 145 142 139 144 144 144 141 131 134
336 335 335 335 332 330 327 324 322 318 313 308 301 299 294 290 291 278 269 267 267 282 294 306 321 339 347 288 241 241 243 230 192 171 178 196 213 225 239 245 237 236 256 282 293 312 324 327 344 338 293 308 301 266 286 308 339 70 17 270 300 327 280 196 166 180 183 185 154 121 182 270 266 258 243 202 149 129 129 143 151 137 138 145 143 139 137 139
337 340 340 338 336 333 331 330 330 327 323 316 306 300 292 287 286 277 273 265 264 280 281 294 318 8 70 258 273 259 228 232 209 187 188 197 217 230 235 239 246 254 264 270 281 306 313 317 324 313 291 280 266 277 296 306 358 70 317 285 231 284 274 229 184 174 190 177 124 110 168 250 262 258 255 208 138 132 143 166 173 142 138 149 148 145 146 146
341 341 338 337 337 336 338 339 340 341 339 334 328 321 307 292 279 269 269 264 275 278 281 296 273 264 348 279 288 256 211 226 222 205 205 209 216 229 230 220 230 244 255 268 282 302 301 297 300 282 273 273 263 274 304 313 298 135 227 291 244 200 255 251 192 172 184 173 129 122 189 250 264 273 269 207 151 137 154 182 195 158 144 152 157 151 151 153
340 338 336 335 335 337 340 341 346 350 350 350 350 345 328 303 280 261 256 247 273 271 279 303 229 198 331 288 289 236 203 228 229 214 213 219 219 229 226 210 223 235 241 265 263 273 284 279 265 252 265 301 297 263 308 330 306 227 173 240 251 199 241 262 197 176 171 160 147 143 174 237 248 295 321 161 147 137 151 179 195 174 151 155 159 155 153 156
338 336 333 331 332 337 340 338 343 352 355 354 356 357 344 316 279 248 250 236 261 259 250 279 240 186 248 281 306 277 208 220 225 213 207 217 227 237 235 205 213 226 219 246 245 247 269 252 198 267 273 283 294 295 313 295 285 292 209 227 256 223 238 265 191 178 156 147 176 172 181 224 239 283 11 80 119 127 151 179 194 182 158 159 159 154 156 160
336 334 328 327 329 333 337 335 334 343 354 350 347 353 348 329 272 245 257 204 227 278 271 282 279 181 263 263 261 235 199 196 205 205 197 211 237 255 269 243 200 210 210 239 241 215 235 237 144 298 329 268 264 243 194 235 234 298 332 272 278 264 258 251 186 177 160 157 179 176 196 237 248 231 149 136 132 140 174 192 193 183 161 161 161 155 159 166
335 332 325 322 322 326 333 331 326 329 339 342 335 331 327 315 273 246 224 180 141 239 272 243 200 169 319 229 225 217 137 150 165 190 200 210 227 253 284 282 242 207 199 206 233 209 173 358 10 309 304 262 252 228 208 231 140 43 343 30 300 309 304 292 159 168 165 164 183 167 187 231 246 237 205 201 178 162 183 194 187 184 166 159 162 160 161 171
333 329 322 314 312 318 324 324 319 319 326 334 341 331 315 323 12 324 207 205 216 237 262 235 194 230 308 248 174 119 109 141 180 209 216 213 202 215 264 273 265 240 215 196 223 216 145 135 236 221 237 224 197 169 189 335 51 59 9 4 336 333 324 343 44 100 118 123 207 184 183 229 245 253 239 228 205 175 183 195 196 184 172 165 164 167 165 175
331 325 320 312 304 303 309 315 311 312 319 324 338 333 303 16 54 302 244 218 228 235 251 255 219 219 259 259 112 132 186 172 209 220 207 201 192 193 212 221 249 266 245 231 243 229 146 166 232 227 226 207 161 112 91 37 20 36 40 9 344 328 301 321 78 359 55 96 227 230 186 257 269 288 292 253 188 198 199 199 207 192 179 174 168 171 173 177
329 321 317 310 296 290 292 298 300 307 310 311 318 232 270 4 1 324 332 250 250 241 240 248 239 226 245 257 236 259 269 185 216 226 185 177 180 190 184 182 208 233 238 229 186 206 186 213 243 231 213 189 147 84 78 56 20 19 35 31 338 302 301 320 14 26 36 64 294 347 358 289 285 291 295 283 211 212 214 203 205 196 178 172 173 177 181 183
326 318 316 305 293 288 285 289 294 297 294 291 271 246 299 11 1 345 344 282 283 263 239 232 236 234 239 248 228 219 255 231 230 207 172 171 178 191 201 202 209 224 232 203 174 189 199 229 237 218 171 162 135 70 72 47 19 6 11 37 288 284 305 318 336 35 65 111 253 348 343 295 293 301 290 267 240 224 216 211 207 193 181 175 175 173 176 187
325 319 315 303 297 291 290 294 291 288 285 278 271 278 330 24 14 6 359 262 275 266 246 211 213 234 219 191 186 197 218 249 248 178 165 173 182 188 212 238 228 229 229 205 198 209 219 215 197 159 132 155 229 27 71 66 7 316 294 243 241 274 285 280 277 23 48 27 273 326 346 313 281 278 275 264 254 242 210 205 211 202 191 178 166 168 173 183
327 321 311 304 300 297 304 300 291 295 288 274 278 298 1 15 356 11 19 284 270 265 288 216 192 265 101 120 144 195 226 232 204 126 156 183 210 204 224 246 234 241 256 238 214 216 234 213 141 130 149 162 132 329 115 121 98 304 276 234 229 253 275 274 285 47 29 352 290 223 340 299 275 256 258 262 260 251 203 188 202 209 201 189 177 184 184 187
329 324 313 304 296 303 315 303 307 318 297 272 340 3 14 350 347 7 54 20 312 250 35 102 157 138 251 154 175 224 288 255 136 129 159 196 228 264 77 277 274 247 266 275 250 225 221 188 136 141 150 138 134 242 213 141 139 279 259 239 228 239 263 264 259 66 85 270 264 179 169 266 293 279 259 248 238 237 212 186 195 197 196 199 201 203 198 197
329 327 318 301 296 308 312 304 325 333 339 14 3 3 357 342 347 4 62 40 324 260 106 68 155 188 192 174 192 137 270 275 106 130 161 162 200 37 74 280 302 263 278 353 343 300 166 137 105 130 136 141 159 214 227 162 155 243 246 254 254 241 249 247 233 166 173 241 284 199 170 218 284 277 266 244 226 234 223 208 201 192 195 199 202 205 207 206
332 331 323 297 300 304 297 307 324 338 2 3 354 349 343 335 336 2 72 63 280 270 149 256 148 176 170 167 208 197 222 233 68 289 196 131 159 63 169 262 286 283 287 279 242 257 178 151 169 180 176 182 173 212 225 181 186 230 223 241 259 259 275 252 200 164 178 287 302 266 197 211 267 268 278 275 245 239 221 215 209 196 197 197 200 204 206 208
335 335 329 293 295 309 314 307 307 326 347 350 343 331 325 321 330 27 78 79 255 261 169 192 116 176 195 182 202 222 233 198 139 231 154 126 181 133 179 247 279 290 285 261 247 251 210 175 176 179 187 200 207 236 229 191 205 217 201 260 304 336 344 13 55 38 18 315 261 255 206 222 277 271 281 292 265 247 222 207 204 204 204 194 194 198 195 199
335 333 321 300 298 328 326 299 300 332 340 341 334 330 326 324 14 60 42 279 244 268 150 145 139 191 197 195 207 205 216 205 165 185 161 127 193 148 185 246 267 299 305 316 297 265 258 219 165 175 164 176 226 251 245 229 211 178 130 41 21 350 331 349 8 38 24 300 257 244 214 213 266 275 261 251 254 247 204 169 196 212 209 195 193 197 185 183
336 327 319 309 299 323 316 293 333 345 337 337 337 338 341 344 75 104 271 231 188 297 279 189 157 183 190 200 205 191 208 215 169 167 176 108 158 171 232 289 287 326 334 329 312 288 292 317 168 184 145 147 250 273 279 266 219 135 105 71 47 346 333 338 332 62 147 264 255 245 243 227 242 269 261 248 269 272 147 128 139 191 197 197 198 197 180 166
342 325 321 317 300 313 310 309 332 338 336 342 342 341 11 19 38 192 219 79 72 285 283 293 260 208 235 245 230 198 212 224 167 166 186 170 179 193 192 201 180 37 320 285 280 290 284 260 235 204 166 167 206 262 298 299 293 98 87 80 76 317 323 305 262 195 210 246 253 242 245 248 240 250 257 252 257 263 179 167 153 156 175 201 207 194 178 158
326 300 311 298 268 289 303 311 320 325 333 342 345 344 60 50 304 250 252 293 253 236 228 268 270 277 316 329 317 277 243 232 162 166 191 184 180 191 197 202 183 167 220 235 234 254 283 269 250 231 179 173 175 179 243 280 249 134 129 123 147 194 276 262 237 222 225 254 282 265 227 254 273 259 265 265 248 233 215 205 191 178 169 183 204 183 161 156
295 286 291 262 248 264 285 307 314 314 324 338 351 22 45 64 255 274 292 329 339 305 337 347 334 322 297 267 263 270 277 267 201 183 200 191 183 209 206 213 208 190 189 213 221 202 295 288 248 244 197 161 178 189 190 215 225 198 175 155 164 167 191 233 220 208 228 267 297 296 226 230 244 250 272 294 294 297 267 204 209 213 159 135 169 167 155 166
298 300 302 283 262 259 295 309 314 316 319 340 20 35 67 233 261 302 330 342 358 353 352 346 338 324 299 276 246 243 241 237 222 207 219 197 202 223 201 216 233 231 167 167 227 193 306 279 236 238 199 167 185 200 190 224 289 262 199 159 179 188 190 218 208 177 167 344 291 279 239 223 222 264 293 314 312 317 324 315 150 212 158 111 123 158 160 171
309 320 311 291 265 257 324 309 312 325 326 1 33 359 222 253 295 8 15 348 359 353 343 333 322 302 294 292 277 272 274 268 197 87 333 291 247 235 223 212 219 224 201 165 212 28 259 277 296 311 270 207 200 193 174 179 225 279 279 205 214 205 179 202 258 229 81 343 279 247 298 297 307 309 305 295 283 289 309 321 348 224 211 154 159 168 161 156
318 319 298 286 281 348 330 302 302 321 330 28 59 262 254 278 308 6 47 27 8 352 341 334 331 315 306 305 306 331 8 328 20 82 329 300 282 259 250 241 225 222 202 161 188 287 127 262 309 342 317 311 310 229 185 173 180 207 241 230 261 275 153 129 245 345 37 276 273 262 267 278 288 299 295 284 273 275 303 347 23 26 24 11 299 196 178 170
329 319 292 285 6 355 313 294 302 319 353 65 243 249 254 269 321 23 54 38 8 2 347 313 302 310 319 326 317 334 350 329 26 54 276 252 290 323 341 323 335 344 105 110 112 327 84 281 306 343 320 322 343 329 290 246 217 228 236 222 102 43 324 21 174 183 181 227 271 276 260 253 234 237 273 286 285 288 309 8 34 19 26 18 358 12 358 341
335 317 295 266 342 315 299 297 309 333 18 286 255 250 261 312 8 30 55 48 15 13 337 299 315 330 329 336 329 331 337 335 357 349 315 325 281 296 353 310 333 16 50 79 96 177 80 78 287 337 332 331 351 352 318 304 295 295 285 280 120 158 175 181 206 190 174 208 252 271 268 258 237 211 209 329 7 35 17 34 36 19 19 14 14 28 15 1
333 303 255 183 297 296 293 306 327 357 271 239 232 267 341 16 2 1 6 16 53 103 285 304 319 322 323 337 338 328 328 331 333 328 300 303 275 259 344 9 328 353 43 78 79 78 69 88 242 316 341 335 326 296 281 292 309 331 320 298 302 284 116 67 255 202 140 171 219 268 273 257 246 202 86 49 43 58 51 56 56 39 34 26 30 46 34 15
314 318 224 227 316 304 334 350 309 224 241 239 245 300 26 28 331 337 338 336 205 198 217 260 289 299 307 322 323 310 317 323 319 314 286 306 325 323 353 19 15 359 16 57 47 24 53 106 217 286 328 293 273 288 305 310 314 323 302 258 251 251 258 296 283 284 108 150 173 181 264 267 269 295 52 52 53 50 42 54 68 60 53 40 33 47 51 32
257 332 230 226 21 52 58 355 264 226 252 302 321 319 11 358 316 341 340 324 316 266 241 240 287 319 315 303 315 310 313 308 301 311 313 325 349 6 15 32 26 4 27 67 54 11 43 90 166 254 233 242 267 287 299 302 303 303 294 268 253 239 168 165 230 248 189 194 186 163 218 263 271 302 46 44 41 29 20 30 39 41 51 41 19 13 28 35
301 320 261 228 16 319 34 343 318 345 336 335 343 334 352 357 329 327 317 302 316 336 352 353 347 349 333 326 326 311 314 311 297 308 314 327 347 54 80 63 42 5 34 66 46 354 357 65 329 280 274 272 283 288 286 289 295 298 297 306 296 273 222 178 198 194 172 202 187 168 222 265 271 257 77 41 14 11 9 21 24 16 19 25 18 8 1 356
318 292 246 6 1 350 15 337 328 341 328 341 360 352 351 344 313 312 311 299 344 3 357 331 324 326 315 319 313 304 316 322 307 318 313 313 332 304 347 78 97 71 58 112 113 355 305 9 60 344 326 324 329 322 303 309 327 318 298 319 321 310 322 336 18 71 118 217 184 168 226 259 270 308 352 346 355 4 4 18 26 17 6 4 6 4 352 341
315 278 261 351 360 5 42 190 315 327 333 2 5 344 336 321 310 323 318 303 355 352 328 309 320 331 322 318 314 308 314 309 297 314 312 304 299 299 311 53 104 94 109 133 124 116 163 164 96 117 246 271 267 233 295 343 340 320 303 312 314 312 319 327 353 19 294 253 225 187 226 262 286 312 316 321 352 5 359 7 17 14 4 356 351 346 342 338
327 324 328 334 352 10 340 312 21 24 6 14 352 314 314 303 312 330 331 349 13 325 317 335 334 342 335 321 319 316 313 310 304 301 309 307 298 304 319 329 120 137 150 146 130 106 106 142 146 176 214 231 231 250 309 334 316 300 302 303 295 293 307 349 24 324 243 291 303 236 225 271 292 297 293 303 17 26 3 355 353 354 353 347 341 331 324 319
340 347 5 339 321 351 352 350 17 19 351 351 326 299 304 302 311 336 2 14 305 291 267 306 324 333 323 313 308 296 288 285 282 286 298 301 306 326 331 329 6 137 152 149 130 107 91 186 200 210 242 256 261 277 300 308 294 288 293 291 283 287 325 356 322 255 239 316 302 265 251 276 278 279 286 302 352 7 316 302 301 317 329 320 316 308 301 301
13 325 15 16 311 326 354 336 330 335 329 320 308 301 304 311 315 306 302 309 306 309 303 243 350 333 310 303 297 299 304 293 288 300 319 329 334 343 339 334 354 101 145 249 123 128 135 212 208 214 248 256 259 270 273 266 268 272 273 275 279 295 315 300 271 261 258 253 252 259 268 261 261 279 295 303 310 295 268 246 241 265 290 298 303 302 298 302
14 335 359 27 346 302 314 309 302 299 301 296 286 281 288 301 300 286 296 337 339 351 358 347 351 337 319 323 343 1 360 338 307 326 349 349 339 345 337 323 333 11 27 303 296 157 144 207 207 211 248 255 248 260 267 266 270 270 263 264 275 295 293 278 269 265 260 249 246 267 286 273 257 272 290 293 295 295 292 299 317 329 335 344 344 335 332 331
10 333 336 355 331 305 297 307 310 295 287 288 277 267 262 264 279 293 333 6 359 355 354 337 333 340 340 345 357 12 34 101 241 294 334 342 339 345 332 311 321 332 335 326 305 297 152 231 215 202 258 265 245 257 274 278 279 276 273 277 299 309 294 287 283 276 273 274 277 302 310 294 271 261 278 295 319 353 10 7 5 7 5 4 2 351 344 346
355 336 343 329 300 324 316 311 320 305 303 309 283 281 295 326 349 354 356 356 350 335 331 335 347 0 360 345 339 354 18 10 333 318 324 326 321 313 302 310 321 322 319 317 313 309 155 250 275 274 275 259 205 243 273 285 286 281 281 291 305 294 282 276 267 256 252 264 285 309 304 283 284 299 314 331 353 16 28 27 19 15 7 359 350 343 347 357
360 344 354 353 276 317 324 306 310 306 319 333 325 330 344 356 4 5 350 335 338 336 346 360 7 16 13 346 339 5 13 355 331 321 317 303 293 284 279 287 293 294 292 295 303 304 148 283 307 283 276 266 167 214 267 314 309 281 267 239 229 249 259 268 272 267 261 256 276 287 266 269 314 354 9 2 7 19 19 17 13 358 345 340 339 349 1 2
Height
797 796 795 794 793 792 792 791 790 789 789 788 787 787 787 786 786 786 786 785 786 785 785 785 784 784 783 782 782 781 780 778 776 776 774 768 767 768 768 769 769 770 771 772 772 773 773 773 772 772 773 773 773 772 770 767 764 769 777 786 791 788 780 769 764 760 757 756 749 743 740 746 750 746 743 743 748 754 759 762 760 760 763 767 771 773 776 780
796 795 794 793 793 792 791 791 790 789 789 788 787 787 786 786 786 785 785 785 785 785 785 785 784 784 783 783 782 781 780 777 776 774 768 764 766 768 768 768 769 770 771 772 772 772 773 772 770 770 773 774 773 770 771 767 764 772 777 783 786 779 769 760 759 754 751 754 750 744 742 744 747 746 745 752 760 758 765 770 766 771 773 773 773 775 778 780
795 794 793 793 792 791 791 790 789 789 788 787 787 786 785 785 785 785 785 785 785 785 784 784 784 783 783 783 782 781 779 777 776 769 761 762 765 766 767 768 768 769 770 771 771 772 772 770 768 770 773 775 773 770 772 768 766 770 774 783 779 767 761 756 755 751 746 748 749 747 743 744 746 745 747 755 762 761 768 772 771 777 779 777 777 777 779 781
795 794 793 792 791 790 790 789 788 788 787 787 786 785 785 784 784 785 784 784 784 784 784 783 783 782 783 782 782 781 779 778 773 762 758 761 763 764 766 767 767 768 769 769 771 771 770 769 768 768 772 775 772 769 772 769 767 767 771 779 770 761 763 758 753 749 744 744 747 749 747 749 747 746 750 754 764 767 765 763 765 771 774 775 777 778 780 781
794 793 792 791 791 790 789 789 788 787 787 786 785 785 784 784 784 784 784 784 784 783 783 783 782 782 782 782 782 781 780 779 768 758 759 760 761 764 765 766 767 767 768 770 770 770 770 768 767 768 771 774 772 771 771 764 762 767 768 768 762 761 765 757 751 750 746 745 748 750 751 751 747 748 751 754 766 768 759 756 756 761 766 771 775 778 780 782
794 792 792 791 790 790 789 788 787 786 786 785 785 784 784 784 783 783 783 783 783 783 783 782 782 782 782 781 781 781 782 777 763 758 760 759 761 763 764 765 766 767 768 769 769 769 769 767 768 770 770 771 772 770 767 758 758 768 766 760 758 758 760 755 749 749 749 750 753 754 751 749 751 754 751 753 763 760 750 750 754 759 764 769 773 777 780 782
793 792 791 790 789 789 788 787 786 785 785 784 784 783 783 783 783 783 783 783 783 783 783 782 782 782 781 781 781 781 782 773 760 760 760 759 762 762 763 765 765 767 767 767 768 769 768 768 768 769 770 771 769 766 762 756 756 765 765 758 756 753 754 753 749 749 750 753 754 752 751 751 756 757 752 755 759 753 749 751 756 762 765 770 774 777 780 782
793 792 790 790 789 788 787 786 785 785 784 783 783 782 782 782 782 782 782 783 782 782 783 782 783 782 781 781 780 781 780 768 758 760 760 760 762 762 764 764 764 766 765 767 766 766 767 767 766 765 769 769 764 762 758 757 757 760 761 756 752 751 751 750 749 750 751 752 752 752 756 756 754 754 755 758 758 752 752 756 760 765 767 771 775 777 779 781
792 791 790 789 788 787 786 785 785 784 783 782 782 781 781 781 782 782 782 782 782 782 782 782 783 782 782 781 781 782 772 758 757 760 759 761 761 762 763 763 764 764 765 765 763 765 766 765 762 760 765 764 760 759 756 760 761 755 754 752 751 751 749 749 750 752 753 753 753 757 760 757 752 753 758 758 757 754 753 758 762 765 769 772 774 777 778 780
792 790 790 789 787 787 785 785 784 783 782 782 781 781 781 780 781 781 781 781 782 782 781 783 782 781 782 780 782 783 765 754 758 759 759 761 761 762 762 762 763 763 763 763 761 762 761 759 756 754 758 759 758 756 754 757 755 748 749 750 750 751 748 749 751 752 754 754 755 760 763 759 753 758 764 759 755 755 756 760 762 764 769 771 773 776 777 780
791 790 789 788 787 786 785 784 783 782 782 781 780 780 780 780 780 780 780 781 781 781 782 782 781 782 782 780 785 780 761 756 759 758 760 760 761 761 760 761 761 762 762 760 759 758 756 754 751 753 758 759 757 755 751 749 746 745 748 751 751 751 750 750 753 754 756 757 756 758 763 761 757 762 765 756 753 756 757 761 763 765 769 770 772 775 776 780
791 789 788 787 786 785 784 784 782 782 781 780 780 779 779 779 779 780 780 780 781 781 782 782 782 782 781 781 781 770 758 758 758 758 760 760 761 761 759 760 759 760 760 758 756 754 754 751 750 756 759 758 760 759 752 744 744 745 748 757 757 753 754 753 753 755 757 759 754 757 769 770 765 765 761 753 753 757 758 760 762 765 769 770 772 774 777 779
790 789 788 787 786 785 784 783 782 781 780 779 779 778 779 778 779 779 779 780 780 781 781 781 781 781 783 779 768 760 757 758 758 757 759 759 760 760 759 760 759 759 758 757 755 753 754 751 751 756 756 758 762 758 751 745 746 749 751 759 762 763 763 754 751 754 756 758 751 760 782 781 769 762 756 753 753 757 761 761 761 765 768 771 772 774 777 779
790 788 788 787 786 785 783 782 781 780 779 778 778 778 778 777 778 778 779 780 780 781 781 781 782 781 783 774 759 757 757 757 758 757 758 759 759 759 758 758 758 758 757 756 755 753 753 752 752 755 754 757 757 753 752 752 750 753 758 761 765 774 771 753 750 755 758 758 750 761 785 782 768 761 756 754 754 757 762 762 762 765 768 770 772 774 777 777
789 788 787 787 785 784 783 782 781 780 779 778 777 777 777 777 778 777 779 779 780 781 780 781 781 781 783 772 758 756 757 756 757 756 757 758 757 757 757 757 757 757 756 755 755 754 753 752 755 759 758 753 754 758 761 760 756 756 768 773 770 774 770 754 749 752 757 758 750 763 783 778 768 762 755 752 753 755 761 763 762 764 767 770 771 772 775 776
789 788 787 786 785 784 783 782 781 780 779 778 777 777 776 777 777 778 778 778 780 780 780 781 780 781 783 771 758 755 756 755 754 755 756 756 756 755 755 755 755 755 755 754 754 754 753 754 756 758 758 757 760 764 766 771 768 761 770 778 774 773 771 760 750 746 751 757 755 762 776 775 768 760 752 749 750 754 760 762 762 764 766 768 770 771 773 775
789 788 787 786 785 784 783 782 781 780 779 779 778 777 777 776 776 778 778 779 780 779 780 780 779 782 777 764 758 757 754 753 753 753 754 754 754 754 753 754 754 754 754 753 754 753 753 755 758 758 759 762 764 766 776 786 783 772 770 774 771 769 769 765 756 747 748 756 759 761 767 768 764 758 753 751 752 756 760 763 762 763 766 767 768 771 772 774
788 787 787 786 785 784 783 782 781 780 780 779 778 778 777 777 777 778 778 779 779 780 781 779 781 786 775 760 758 754 749 751 751 751 753 753 753 753 752 752 752 753 755 756 755 755 757 757 759 764 765 765 765 770 784 788 782 779 776 776 775 767 764 764 759 750 749 756 760 764 768 765 762 759 757 754 753 757 760 761 762 762 764 766 766 769 771 772
788 787 786 785 785 784 783 782 780 780 779 779 779 778 777 776 776 777 778 779 780 780 779 775 776 777 767 755 752 748 747 750 750 751 752 752 752 753 752 751 751 754 759 763 761 758 759 761 765 772 774 771 768 769 776 775 772 774 773 774 777 771 765 760 754 749 749 756 761 764 769 766 762 762 759 755 753 756 758 758 760 762 763 765 766 767 769 771
787 786 786 785 784 784 783 782 780 779 778 778 778 777 777 776 777 779 778 778 776 771 767 766 766 763 757 751 748 748 749 749 751 751 751 751 752 753 753 753 753 756 761 765 765 758 758 769 775 774 773 770 767 764 766 766 765 768 770 772 773 773 771 759 753 750 747 758 764 761 764 763 761 761 760 758 757 757 759 759 759 761 762 763 764 765 767 769
787 786 785 784 784 783 782 781 780 778 778 777 777 778 777 774 778 780 775 773 768 762 762 760 758 757 753 749 747 747 749 751 751 750 750 750 750 756 757 755 760 764 762 761 763 757 759 774 775 767 765 763 762 761 761 763 765 768 771 773 773 774 772 760 755 753 748 758 764 760 763 764 760 760 758 758 761 760 759 759 759 759 761 761 761 762 764 765
786 785 784 784 783 782 782 780 780 778 777 777 777 777 774 771 774 773 771 772 765 758 759 755 754 754 748 746 746 746 749 754 754 750 748 748 751 758 758 757 764 766 760 760 765 765 769 774 767 759 759 759 759 758 760 764 766 770 771 774 777 773 768 764 760 758 755 762 768 766 768 768 761 758 757 757 760 760 757 756 756 756 758 760 760 761 762 763
786 784 784 783 782 781 780 780 780 778 776 776 776 775 772 770 770 769 770 774 768 756 753 753 753 751 748 746 744 745 751 755 755 751 746 748 752 755 758 760 763 763 761 763 768 774 777 770 758 755 757 757 760 759 761 765 767 770 772 776 780 772 771 774 768 763 760 764 769 770 772 771 764 761 759 756 756 756 755 754 753 754 755 756 758 759 761 762
784 783 783 782 781 781 779 779 778 777 776 775 775 773 771 770 769 770 770 772 770 756 747 747 746 747 747 745 743 746 752 751 750 749 745 748 752 753 756 758 760 762 761 760 763 769 769 758 749 753 756 757 762 762 762 769 772 771 770 774 777 772 772 774 769 765 763 765 765 769 779 777 767 766 762 755 753 753 753 754 754 753 752 753 755 757 759 760
783 783 782 781 781 780 779 778 776 776 775 775 775 771 770 770 767 769 771 775 775 759 747 745 744 746 744 743 744 745 748 748 745 745 743 745 749 752 754 752 755 762 759 755 759 763 760 751 747 753 756 756 762 765 764 769 775 775 770 767 768 767 768 769 768 769 776 779 768 770 791 788 769 767 765 757 755 753 751 752 754 753 752 753 754 756 758 759
783 782 781 781 780 779 779 777 774 775 774 773 773 771 770 769 768 769 772 783 783 763 753 751 748 749 745 744 744 743 753 753 741 740 742 744 744 748 755 753 752 757 754 751 756 758 754 750 747 752 756 758 762 766 763 764 776 781 769 760 761 763 765 768 768 773 784 786 770 769 791 793 774 765 760 756 756 753 751 751 751 752 752 753 753 754 755 756
782 781 780 781 779 779 778 776 775 773 772 773 772 771 771 768 769 768 774 795 789 761 754 755 750 749 746 744 742 749 764 757 742 742 741 743 744 745 757 759 756 756 749 753 763 760 754 753 753 753 756 761 765 767 762 760 775 779 763 756 760 762 766 768 768 773 778 777 773 770 780 790 784 767 755 753 755 753 751 751 749 750 751 751 751 752 752 752
781 780 780 780 779 779 778 777 776 773 774 774 771 772 771 768 770 768 782 805 787 753 751 753 747 745 743 743 743 750 757 751 752 753 740 742 746 747 758 760 758 758 749 758 772 761 752 756 757 755 759 763 763 762 757 757 769 768 757 756 757 758 764 765 767 772 772 777 786 778 775 789 790 767 752 752 756 757 753 749 747 747 748 748 749 749 749 750
781 780 780 780 779 779 778 778 776 775 775 772 771 772 769 770 770 772 792 803 775 751 750 750 747 746 744 746 747 748 748 747 754 753 741 744 746 747 758 757 756 759 752 756 765 757 749 750 750 753 759 761 757 754 752 757 763 759 754 756 756 757 761 763 769 772 774 785 794 783 776 790 791 769 757 757 756 755 750 746 745 743 742 743 744 745 745 747
780 780 780 779 779 779 778 778 776 775 774 771 773 771 768 772 774 788 806 794 768 756 749 748 750 747 747 751 752 749 748 748 747 746 745 747 746 747 751 750 752 758 755 754 756 753 745 741 743 747 752 752 750 750 750 752 755 753 754 759 761 762 762 766 769 771 785 796 791 780 774 784 791 773 758 755 750 746 744 743 743 741 740 740 739 740 741 743
780 780 780 779 779 779 778 777 775 775 774 772 772 768 771 775 779 800 804 774 762 761 749 749 749 745 749 754 754 751 748 746 743 746 751 750 751 753 754 756 758 762 764 761 758 752 746 746 746 743 743 745 749 752 750 747 748 751 757 763 772 775 773 777 777 779 799 802 784 775 770 778 792 776 754 748 742 738 739 738 739 741 741 740 738 738 738 739
780 780 779 778 778 778 777 777 775 775 773 772 772 769 776 785 789 798 786 761 766 767 753 753 749 745 749 749 751 750 747 746 742 745 752 753 756 757 758 763 764 771 777 771 765 759 754 751 746 742 740 741 751 758 756 751 749 753 759 768 783 793 793 797 796 794 802 796 776 770 771 778 784 767 749 745 738 734 733 731 733 736 738 739 738 737 736 737
780 779 779 778 778 777 776 776 775 775 773 771 773 772 782 798 797 785 771 763 768 761 750 752 747 744 748 750 752 747 743 744 741 744 747 748 756 757 755 755 755 766 774 770 770 768 764 755 746 746 745 741 748 760 766 762 757 759 763 772 788 800 807 810 803 798 799 790 773 766 772 780 776 758 744 739 735 732 731 729 728 728 731 735 735 735 735 736
779 778 779 777 777 776 775 776 775 774 773 771 775 779 789 802 791 773 769 765 758 751 749 751 749 748 750 752 752 746 746 747 739 742 746 746 755 758 756 753 749 755 761 765 769 768 773 771 755 749 748 744 746 752 758 758 758 759 756 764 779 787 797 804 798 797 798 791 779 771 776 780 773 758 741 733 732 729 729 730 729 727 727 729 732 734 735 735
779 778 778 776 776 775 773 775 774 773 774 773 778 787 795 797 781 769 772 765 756 756 755 752 753 757 756 752 747 741 745 748 740 742 748 748 754 756 754 752 747 748 756 766 767 761 771 771 750 742 741 741 745 743 743 751 761 758 750 761 774 771 776 786 786 786 790 795 788 779 776 768 757 749 735 731 732 728 729 729 729 731 728 728 732 733 735 736
779 778 777 775 775 774 773 775 774 773 774 776 785 792 790 782 771 766 768 763 762 764 763 761 760 764 765 757 749 743 741 744 744 747 750 749 750 749 747 745 741 742 749 759 764 762 771 768 748 742 742 738 740 739 737 749 761 761 759 765 763 754 759 776 783 779 783 797 791 778 776 767 757 752 738 735 737 732 733 732 730 734 731 729 732 732 734 736
779 778 777 774 774 774 774 774 773 773 773 779 791 791 780 770 762 759 761 761 763 763 768 775 769 766 770 765 757 751 747 748 747 750 755 754 751 746 742 740 736 736 738 745 755 757 766 770 754 747 751 742 735 736 736 739 748 760 766 760 751 750 755 768 783 786 790 801 791 778 781 778 775 768 747 739 743 739 737 736 733 735 736 735 734 733 733 732
779 778 777 774 774 774 773 773 773 773 775 782 790 785 773 766 758 755 759 761 763 765 772 780 771 764 770 771 765 755 752 756 755 754 757 756 753 747 743 742 737 734 733 739 752 754 759 772 763 749 753 748 737 742 748 741 739 749 755 749 752 767 772 773 783 790 796 803 793 781 780 777 776 770 753 748 750 745 742 742 739 738 739 739 737 737 737 735
779 780 778 774 774 773 773 773 771 772 779 785 789 780 767 762 757 756 759 760 764 770 775 776 770 767 769 770 769 761 757 760 759 759 760 758 756 749 744 745 741 737 735 739 751 754 755 773 775 756 751 753 749 754 763 758 747 744 747 747 751 763 771 773 775 779 788 797 794 787 783 776 766 758 754 755 754 751 748 746 745 743 742 742 740 740 742 741
779 782 780 773 773 773 771 772 772 776 783 784 781 774 763 762 761 757 758 760 764 770 773 773 771 772 771 768 769 766 762 761 760 761 762 757 756 752 745 745 745 741 738 738 747 753 755 771 780 768 758 762 765 762 762 762 758 756 758 758 757 757 761 767 770 771 780 792 796 795 792 777 756 748 752 755 753 751 749 747 746 744 743 744 743 744 744 743
781 784 779 771 772 772 770 774 776 778 781 776 772 769 765 765 764 760 758 758 761 763 765 768 769 770 771 770 770 768 765 765 762 762 762 756 755 758 751 746 747 747 745 746 753 760 763 769 777 777 772 773 771 760 754 756 759 762 765 763 762 762 764 774 781 775 774 784 791 796 800 782 755 746 750 753 752 750 749 749 749 746 744 744 743 744 744 743
784 784 777 770 772 771 771 777 777 774 775 773 770 768 764 764 764 763 761 760 761 760 759 762 766 767 769 769 769 767 767 768 766 764 764 759 757 759 754 747 748 749 752 759 765 766 767 770 776 779 776 772 765 756 754 754 753 757 761 760 759 761 764 777 785 777 774 780 781 788 798 781 753 744 747 750 751 749 748 749 749 749 747 746 745 744 744 745
785 783 774 770 771 769 774 781 778 775 776 772 768 766 764 765 766 765 764 763 764 763 763 765 767 769 769 768 768 769 769 769 768 765 765 762 758 756 752 749 750 751 755 763 768 767 767 772 779 781 775 768 762 757 754 753 753 759 761 759 760 762 762 767 771 769 772 778 778 786 793 774 749 743 747 748 747 746 747 748 749 751 750 749 749 748 747 747
786 782 774 772 772 770 777 784 782 781 778 774 773 773 770 768 768 767 766 766 766 768 771 771 769 769 769 767 768 769 769 772 771 765 764 764 760 753 750 750 751 754 759 764 767 769 772 776 782 787 788 782 777 772 767 763 764 768 767 763 763 762 761 763 764 767 774 775 774 785 789 770 750 745 746 746 746 746 748 749 750 751 751 751 751 750 750 749
787 783 776 773 771 772 777 778 779 782 780 779 782 781 777 774 769 767 766 765 765 768 772 772 768 768 768 768 770 769 768 772 773 767 765 765 760 753 751 751 752 756 760 761 761 766 774 779 783 791 798 798 793 786 780 778 776 773 770 767 765 763 765 768 769 774 780 775 771 779 780 766 753 748 748 748 749 749 749 750 750 750 751 752 752 751 752 751
788 787 784 780 775 775 778 775 777 782 784 786 788 783 781 780 772 767 766 766 766 766 770 772 769 770 772 772 775 775 771 770 772 770 769 769 764 757 753 750 751 756 758 757 758 764 774 780 781 787 792 793 792 785 778 779 780 778 774 769 767 765 764 769 774 779 779 777 777 775 770 765 759 753 752 753 753 754 752 751 751 751 752 753 753 752 751 750
790 792 793 793 787 783 782 780 781 785 785 787 789 784 782 782 777 772 770 769 768 766 769 771 771 775 778 777 778 779 776 772 771 771 770 770 768 763 759 754 754 757 757 757 759 764 775 781 779 782 783 782 783 781 777 779 779 777 773 769 767 766 767 771 777 776 774 780 783 772 764 768 764 755 754 756 757 757 755 753 753 753 753 753 752 753 751 750
794 795 795 798 798 793 792 789 786 787 786 786 786 785 783 783 782 779 775 771 769 768 771 775 774 776 778 777 778 780 779 776 776 775 774 775 775 772 768 762 760 760 761 761 760 763 773 779 777 778 779 777 777 777 776 777 776 772 771 768 766 768 770 772 772 770 770 778 779 769 767 771 765 757 757 757 756 757 755 754 753 752 752 752 753 754 754 753
800 800 797 798 800 799 797 794 788 787 788 786 785 784 784 785 784 780 774 773 776 775 776 780 779 776 776 776 780 785 787 787 788 785 783 783 782 780 777 771 765 762 763 766 764 762 770 776 774 775 776 774 774 774 772 773 773 770 767 765 765 768 769 770 769 768 768 771 770 767 768 768 764 761 758 754 754 754 753 753 753 753 754 755 756 757 757 756
809 810 806 802 802 800 796 793 790 789 787 785 786 783 781 782 782 779 774 776 783 781 779 782 781 777 777 779 782 787 790 791 793 789 786 787 785 783 782 777 770 766 766 769 768 765 769 774 771 770 775 775 772 771 771 771 772 769 765 764 766 767 767 768 768 766 767 767 765 766 769 766 761 758 755 752 752 753 754 756 757 758 759 758 758 757 756 756
814 813 811 809 807 801 797 795 792 791 790 787 786 782 779 780 781 780 779 778 781 782 781 783 784 782 782 782 783 787 789 789 790 788 785 786 785 784 783 778 775 774 772 770 770 768 771 775 771 772 779 779 772 771 771 770 770 769 768 768 769 767 768 768 765 764 764 765 765 768 771 767 760 757 756 754 754 756 759 760 760 761 760 759 758 757 757 758
814 812 810 811 810 803 799 798 793 793 794 791 787 783 782 783 781 783 786 781 777 780 782 785 786 786 788 788 787 788 788 788 788 786 783 783 781 781 780 778 777 778 777 775 773 771 772 776 776 778 782 779 773 771 771 774 779 777 770 767 766 765 766 766 764 762 762 764 768 773 773 770 764 762 763 762 761 761 762 762 761 761 760 760 759 759 759 759